User: anonymous   Login
Location: Unspecified
(0.0000°N, 0.0000°E)
Time: 08:22:45
(UTC+00:00)
Language:

PAYLOAD H - Orbit

View from above orbital plane
View from above orbital plane
View from above satellite
View from above satellite

Ground track
Ground track

The orbit data is extracted from the following two-line orbital elements,

1 27847U 03031H   19345.79273606 +.00000018 +00000-0 +27620-4 0  9997
2 27847 098.6842 349.8119 0008749 210.6816 149.3852 14.22180876853416
Epoch (UTC): 11 December 2019 19:01:32
Eccentricity: 0.0008749
inclination: 98.6842°
perigee height: 811 km
apogee height: 824 km
right ascension of ascending node: 349.8119°
argument of perigee: 210.6816°
revolutions per day: 14.22180876
mean anomaly at epoch: 149.3852°
orbit number at epoch: 85341

The dashed part of the orbit path shows where the satellite is in the earth's shadow,  

DLR